www.pogodaiklimat.ru

Погода и климат >> Архив погоды >> Кувейт >> Jahra


ПОГОДА в Jahra

  • Прогноз погоды в Jahra
  • Монитор погоды в Jahra
  • Климат города

АРХИВ ПОГОДЫ в Jahra

Время (UTC), дата Ветер
(напр.,м/с)
 
Видим.   Явления Облачность Т
(С)
Тd
(С)
f
(%)
Тe
(С)
Тes
(С)
Комфортность P
(гПа)
Po
(гПа)
Тmin
(С)
Tmax
(С)
R
(мм)
R24
(мм)
S
(см)
03 14.08 З 5-6
{7}
н/о н/о +31.0 +0.6 14 +28 +28 жарко 997.8 998.0
06 14.08 З 4-9
{9}
н/о н/о +39.0 +2.0 10 +35 +35 очень
жарко
998.7 999.0
09 14.08 З 3-9
{12}
н/о н/о
18 14.08 З 4-7
{11}
н/о н/о +38.3 +1.6 10 +35 +35 очень
жарко
999.0 999.0
21 14.08 З 3-5
{7}
н/о н/о +34.4 +0.5 12 +31 +31 жарко 999.1 999.0 +30.8 +45.5
00 15.08 З 4-6
{7}
н/о н/о +31.1 -0.4 13 +28 +28 жарко 999.0 999.0
03 15.08 З 4-5
{7}
н/о н/о +30.4 -0.4 14 +27 +27 жарко 1000.0 1000.0
06 15.08 З 4-6
{8}
н/о н/о +39.9 +0.7 9 +36 +36 очень
жарко
1000.3 1000.0
09 15.08 СЗ 2-6
{7}
н/о н/о +42.9 +1.0 8 +39 +39 очень
жарко
999.7 1000.0
12 15.08 З 4-7
{9}
н/о н/о +45.4 -1.1 6 +42 +42 опасность
перегрева
998.5 999.0
15 15.08 З 3-5
{7}
н/о н/о +42.6 -2.3 6 +39 +39 очень
жарко
998.5 999.0
18 15.08 З 2-3
{7}
н/о н/о +37.1 -5.3 7 +33 +33 жарко 999.9 1000.0
21 15.08 ЮЗ 2-3
{4}
н/о н/о +33.5 -5.6 8 +29 +29 жарко 999.8 1000.0 +29.8 +45.5
00 16.08 З 3-4
{6}
н/о н/о +31.7 -1.9 11 +28 +28 жарко 999.7 1000.0
03 16.08 Ю 1-2
{4}
н/о н/о +30.9 +3.1 17 +28 +28 жарко 1001.0 1001.0
06 16.08 СЗ 2-4
{5}
н/о н/о +40.3 +3.8 11 +37 +37 очень
жарко
1001.4 1001.0
09 16.08 СЗ 2-5
{6}
н/о н/о +43.9 +1.8 8 +40 +40 очень
жарко
1000.7 1001.0
12 16.08 З 3-6
{9}
н/о н/о +46.2 +0.4 6 +42 +42 опасность
перегрева
999.0 999.0
15 16.08 З 3-5
{8}
н/о н/о +43.8 -3.4 5 +40 +40 очень
жарко
998.9 999.0
18 16.08 З 2-3
{8}
н/о н/о +37.7 -2.9 8 +34 +34 очень
жарко
1000.1 1000.0
21 16.08 З 3-4
{6}
н/о н/о +35.2 -1.6 10 +31 +31 жарко 999.3 999.0 +30.6 +46.7
00 17.08 СЗ 2-5
{7}
н/о н/о +34.5 +2.4 13 +31 +31 жарко 999.7 1000.0
03 17.08 СЗ 3-7
{7}
н/о н/о +34.1 +1.8 13 +31 +31 жарко 1000.9 1001.0
06 17.08 СЗ 3-8
{9}
н/о н/о +40.3 +1.1 9 +37 +37 очень
жарко
1001.8 1002.0
09 17.08 СЗ 4-9
{9}
н/о н/о +45.2 +0.3 6 +41 +41 опасность
перегрева
1000.1 1000.0
12 17.08 СЗ 3-8
{9}
н/о н/о +46.7 -1.8 5 +43 +43 опасность
перегрева
998.4 998.0
15 17.08 СЗ 3-7
{9}
н/о н/о +44.1 -5.4 4 +40 +40 очень
жарко
998.1 998.0
18 17.08 З 4-5
{9}
н/о н/о +39.0 -3.7 7 +35 +35 очень
жарко
999.1 999.0
21 17.08 З 3-5
{8}
н/о н/о +36.5 -0.5 10 +33 +33 жарко 998.0 998.0 +33.6 +47.3
00 18.08 З 2-3
{8}
н/о н/о +32.4 +0.3 13 +29 +29 жарко 998.3 998.0
03 18.08 З 5-8
{8}
н/о н/о +31.4 +0.6 14 +28 +28 жарко 999.3 999.0
06 18.08 З 4-8
{10}
н/о н/о +40.0 +2.5 10 +37 +37 очень
жарко
999.4 999.0
09 18.08 СЗ 3-8
{10}
н/о н/о +44.3 0.0 7 +41 +41 опасность
перегрева
998.2 998.0
12 18.08 С 3-7
{11}
н/о н/о +46.4 -4.6 4 +42 +42 опасность
перегрева
996.7 997.0
15 18.08 З 2-6
{10}
н/о н/о +44.1 -1.8 6 +40 +40 очень
жарко
996.8 997.0
18 18.08 З 3-6
{10}
н/о н/о +39.1 -1.8 8 +35 +35 очень
жарко
998.8 999.0
21 18.08 З 3-5
{7}
н/о н/о +36.7 +0.2 10 +33 +33 жарко 998.6 999.0 +30.9 +47.2
00 19.08 СЗ 2-3
{7}
н/о н/о +34.7 +2.0 13 +32 +32 жарко 998.3 998.0
03 19.08 ЮЗ 2-2
{3}
н/о н/о +30.8 +1.9 16 +28 +28 жарко 999.6 1000.0
06 19.08 З 3-5
{5}
н/о н/о +39.8 +4.3 11 +37 +37 очень
жарко
1000.5 1001.0
09 19.08 СЗ 3-5
{8}
н/о н/о +44.3 +1.9 8 +41 +41 опасность
перегрева
999.5 1000.0
12 19.08 З 2-6
{9}
н/о н/о +45.5 +0.4 6 +42 +42 опасность
перегрева
997.6 998.0
15 19.08 ЮЗ 3-7
{10}
н/о н/о +43.4 -2.7 6 +39 +39 очень
жарко
997.7 998.0
18 19.08 З 3-6
{10}
н/о н/о +39.2 +0.8 9 +35 +35 очень
жарко
999.2 999.0
21 19.08 СЗ 3-6
{6}
н/о н/о +37.3 +1.6 11 +34 +34 очень
жарко
999.0 999.0 +30.3 +46.5
00 20.08 З 1-2
{6}
н/о н/о +33.1 +0.6 13 +30 +30 жарко 999.0 999.0
03 20.08 З 2-3
{3}
н/о н/о +31.8 +0.6 14 +29 +29 жарко 1000.1 1000.0
06 20.08 СЗ 2-4
{5}
н/о н/о +40.2 +3.6 11 +37 +37 очень
жарко
1001.2 1001.0
09 20.08 СЗ 4-9
{9}
н/о н/о +44.2 +1.1 7 +41 +41 опасность
перегрева
1000.4 1000.0
12 20.08 СЗ 3-9
{11}
н/о н/о +45.7 -1.6 5 +42 +42 опасность
перегрева
998.9 999.0
15 20.08 СЗ 3-7
{9}
н/о н/о +44.1 -2.7 5 +40 +40 очень
жарко
998.7 999.0
18 20.08 З 2-4
{9}
н/о н/о +39.6 0.0 8 +36 +36 очень
жарко
1000.6 1001.0
21 20.08 З 4-7
{9}
н/о н/о +37.0 +1.7 11 +34 +34 очень
жарко
1000.2 1000.0 +30.5 +46.1

 

Местоположение метеостанции Jahra (Кувейт): широта 29.32 долгота 47.67 высота над уровнем моря 55 м.

В архиве по умолчанию представлена погода в Jahra за последнюю неделю. Архивные данные за месяц целиком и за предыдущие месяцы, начиная с января 2011 года, Вы можете получить, выбрав интересующий диапазон дат из раскрывающегося списка и нажав кнопку "Ввод!".


*Определитесь, кто Вы:
робот инопланетянин человек

Внимание! Время в таблицах - всемирное. Для получения местного времени необходимо прибавить поправку, которая в Jahra равна 3 ч.

Смотрите также архив погоды в соседних городах и на ближайших метеорологических станциях:

Погода в Sulaibiya (Кувейт) (7 км)
Погода в Experimental Farm (Кувейт) (26 км)
Погода в Minagish (Кувейт) (31 км)
Погода в Kuwait (Кувейт) (31 км)
Погода в Jal Aliyah (Кувейт) (33 км)
Погода в Kuwait City (Кувейт) (37 км)
Погода в Al-Shuaiba (Кувейт) (42 км)
Погода в Sabriyah (Кувейт) (51 км)
Погода в Failaka Island (Кувейт) (61 км)
Погода в Mitribah (Кувейт) (63 км)

Пояснения к столбцам:

Ветер - указаны скорость ветра в м/с - средняя за 10 мин, порывы в срок и между сроками (в фигурных скобках) и направление, откуда дует ветер: С - северный, СВ - северо-восточный, В - восточный, ЮВ - юго-восточный, Ю - южный, ЮЗ - юго-западный, З - западный, СЗ - северо-западный.
Видимость - горизонтальная дальность видимости в метрах или километрах. При видимости от 1 до 10 км при отсутствии осадков обычно наблюдается дымка, при ухудшении видимости до 1 км и менее - туман. В сухую погоду видимость может ухудшаться дымом, пылью или мглою.
Явления - указаны атмосферные явления, наблюдавшиеся в срок или в последний час перед сроком; фигурными скобками обозначены явления, наблюдавшиеся между сроками (за 1-3 часа до срока); квадратными скобками обозначены град или гололедные отложения с указанием их диаметра в мм.
Облачность - указаны через наклонную черту общая и нижняя облачность в баллах и высота нижней границы облаков в метрах; квадратными скобками обозначены формы облаков: Ci - перистые, Cs - перисто-слоистые, Cc - перисто-кучевые, Ac - высококучевые, As - высокослоистые, Sc - слоисто-кучевые, Ns - слоисто-дождевые, Cu - кучевые, Cb - кучево-дождевые. Подробнее классификацию облаков см. в Атласе облаков (PDF).
T - Температура воздуха - температура, измеренная на высоте 2 м над землей.
Td - Температура точки росы - температура, при понижении до которой содержащийся в воздухе водяной пар достигнет насыщения.
f - Относительная влажность воздуха - влажноcть воздуха, измеренная на высоте 2 м над землей.
Te - Эффективная температура - температура, которую ощущает одетый по сезону человек в тени. Характеристика душности погоды. При расчете учитывается влияние влажности воздуха и скорости ветра на теплоощущения человека.
Tes - Эффективная температура на солнце - температура, которую ощущает человек, с поправкой на солнечный нагрев. Характеристика знойности погоды. Зависит от высоты солнца над горизонтом, облачности и скорости ветра. Ночью, в пасмурную погоду, а также при ветре 12 м/с и более поправка равна нулю.
P - Атмосферное давление - приведенное к уровню моря атмосферное давление.
Po - Атмосферное давление - измеренное на уровне метеостанции атмосферное давление.
Tmin - Минимальная температура - минимум температуры воздуха на высоте 2 м над землей.
Tmax - Максимальная температура - максимум температуры воздуха на высоте 2 м над землей.
R - Количество осадков - Количество выпавших осадков за период времени, мм. При наведении курсора мыши на число - период времени, за который выпало указанное количество осадков.
R24 - Количество осадков - Количество выпавших осадков за 24 часа, мм.
S - Снежный покров - Высота снежного покрова, см. При наведении курсора мыши на число - состояние снежного покрова и степень покрытия местности в баллах.